Location: Crescent
(42.8242°N, 73.7329°W)
Time: 05:13:16
(UTC+00:00)

A-11 Canister half - Pass Details

Date: 20 February 2026
Orbit: 1524 x 1683 km, 47.3° (Epoch: 14 March)

Event Time Altitude Azimuth Distance (km) Brightness Sun altitude
Rises 02:48:17 0° 295° (WNW) 4,677 12.3 -45.9°
Reaches altitude 10° 02:51:21 10° 293° (WNW) 3,694 11.5 -46.4°
Enters shadow 02:56:41 38° 278° (W) 2,172 9.9 -47.1°
